www.pogodaiklimat.ru

Погода и климат >> Архив погоды >> Боливия >> Puerto Suarez


ПОГОДА в Puerto Suarez

  • Прогноз погоды в Puerto Suarez
  • Монитор погоды в Puerto Suarez
  • Климат города

АРХИВ ПОГОДЫ в Puerto Suarez

Время (UTC), дата Ветер
(напр.,м/с)
 
Видим.   Явления Облачность Т
(С)
Тd
(С)
f
(%)
Тe
(С)
Тes
(С)
Комфортность P
(гПа)
Po
(гПа)
Тmin
(С)
Tmax
(С)
R
(мм)
R24
(мм)
S
(см)
12 19.06 ЮЗ 4 3000 м слабая морось 10/10 210 м
[Sc]
+11.0 +11.0 100 +8 +8 1020.8 1005.6 +9.2 0.3
15 19.06 ЮЗ 4 20 км {морось} 10/9 450 м
[Sc As op]
+11.6 +9.8 89 +9 +9 1021.6 1006.6
18 19.06 ЮЗ 4 30 км {морось} 10/10 600 м
[Sc]
+13.2 +9.3 77 +11 +11 1020.4 1005.4 0.8
21 19.06 ЮЗ 3 30 км 10/10 600 м
[Sc]
+12.8 +9.6 81 +11 +11 1020.4 1005.4 +13.6
12 20.06 штиль 0 30 км 3/0 2000 м
[Ac trans]
+11.8 +10.0 89 +11 +14 1021.0 1006.0 +7.9 0.8
15 20.06 штиль 0 30 км 3/0 2000 м
[Ac trans]
+19.0 +13.4 70 +20 +33 опасность
простуды
1020.5 1005.4
18 20.06 штиль 0 30 км 3/0 2000 м
[Ac trans]
+19.3 +13.9 71 +21 +30 комфорт 1017.7 1002.6
21 20.06 штиль 0 30 км ясно +19.5 +15.5 78 +21 +21 комфорт 1016.4 1001.2 +20.4
12 21.06 штиль 0 500 м туман ясно +15.7 +15.4 98 +15 +19 1017.6 1002.4 +10.7
15 21.06 В 3 30 км ясно +24.4 +16.0 59 +28 +37 душно 1018.1 1003.0
18 21.06 В 3 30 км ясно +23.8 +18.2 71 +28 +35 душно 1015.7 1000.3
21 21.06 штиль 0 30 км ясно +23.8 +18.7 73 +28 +29 душно 1014.3 999.0 +24.8
12 22.06 штиль 0 30 км ясно +21.3 +18.5 84 +26 +29 душно 1015.0 999.6 +17.8
15 22.06 В 3 30 км ясно +25.2 +18.6 67 +30 +39 душно 1015.4 1000.1
18 22.06 В 5 30 км ясно +27.5 +18.9 59 +33 +37 очень
душно
1012.6 997.0
21 22.06 В 3 30 км ясно +26.0 +19.6 68 +32 +32 очень
душно
1010.5 995.2 +28.3
12 23.06 В 4 30 км 4/4 700 м
[Cu med, cong]
+23.5 +14.9 58 +26 +27 жарко 1013.7 998.4 +18.3
15 23.06 В 4 30 км ясно +26.0 +16.8 57 +30 +37 душно 1014.0 998.8
18 23.06 В 4 30 км ясно +27.8 +18.4 57 +33 +38 очень
душно
1011.8 996.4
21 23.06 штиль 0 30 км ясно +26.0 +19.6 68 +32 +32 очень
душно
1011.4 996.0 +28.4
12 24.06 В 3 30 км ясно +23.0 +17.0 69 +28 +30 душно 1015.2 999.8 +18.2
15 24.06 В 4 30 км ясно +26.0 +17.2 58 +30 +37 душно 1015.9 1000.6
18 24.06 В 4 30 км ясно +28.0 +19.5 60 +34 +39 очень
душно
1014.1 998.8
21 24.06 штиль 0 30 км ясно +27.5 +20.5 66 +34 +34 очень
душно
1013.3 998.0 +28.5
12 25.06 штиль 0 30 км ясно +18.6 +15.2 81 +19 +23 1016.3 1001.0 +13.8
15 25.06 В 4 30 км ясно +27.5 +18.6 58 +32 +40 очень
душно
1015.6 1000.5
18 25.06 В 3 30 км ясно +29.3 +18.6 53 +34 +41 очень
душно
1013.4 998.0
21 25.06 В 3 30 км ясно +27.7 +22.2 72 +36 +36 очень
душно
1012.1 996.8 +29.5

 

Местоположение метеостанции Puerto Suarez (Боливия): широта -18.98 долгота -57.81 высота над уровнем моря 134 м.

В архиве по умолчанию представлена погода в Puerto Suarez за последнюю неделю. Архивные данные за месяц целиком и за предыдущие месяцы, начиная с января 2011 года, Вы можете получить, выбрав интересующий диапазон дат из раскрывающегося списка и нажав кнопку "Ввод!".

Внимание! Время в таблицах - всемирное. Для получения местного времени необходимо прибавить поправку, которая в Puerto Suarez равна -4 ч.

Смотрите также архив погоды в соседних городах и на ближайших метеорологических станциях:

Погода в Robore (Боливия) (219 км)
Погода в San Matias (Боливия) (301 км)
Погода в Caceres (Бразилия) (326 км)
Погода в San Jose De Chiquit (Боливия) (335 км)
Погода в Puerto Casado (Парагвай) (367 км)
Погода в Campo Grande (Бразилия) (369 км)
Погода в Cuiaba (Бразилия) (412 км)
Погода в San Ignacio De Vela (Боливия) (442 км)
Погода в Mariscal Estigar (Парагвай) (445 км)
Погода в Ponta Pora (Бразилия) (452 км)

Пояснения к столбцам:

Ветер - указаны скорость ветра в м/с - средняя за 10 мин, порывы в срок и между сроками (в фигурных скобках) и направление, откуда дует ветер: С - северный, СВ - северо-восточный, В - восточный, ЮВ - юго-восточный, Ю - южный, ЮЗ - юго-западный, З - западный, СЗ - северо-западный.
Видимость - горизонтальная дальность видимости в метрах или километрах. При видимости от 1 до 10 км при отсутствии осадков обычно наблюдается дымка, при ухудшении видимости до 1 км и менее - туман. В сухую погоду видимость может ухудшаться дымом, пылью или мглою.
Явления - указаны атмосферные явления, наблюдавшиеся в срок или в последний час перед сроком; фигурными скобками обозначены явления, наблюдавшиеся между сроками (за 1-3 часа до срока); квадратными скобками обозначены град или гололедные отложения с указанием их диаметра в мм.
Облачность - указаны через наклонную черту общая и нижняя облачность в баллах и высота нижней границы облаков в метрах; квадратными скобками обозначены формы облаков: Ci - перистые, Cs - перисто-слоистые, Cc - перисто-кучевые, Ac - высококучевые, As - высокослоистые, Sc - слоисто-кучевые, Ns - слоисто-дождевые, Cu - кучевые, Cb - кучево-дождевые. Подробнее классификацию облаков см. в Атласе облаков (PDF).
T - Температура воздуха - температура, измеренная на высоте 2 м над землей.
Td - Температура точки росы - температура, при понижении до которой содержащийся в воздухе водяной пар достигнет насыщения.
f - Относительная влажность воздуха - влажноcть воздуха, измеренная на высоте 2 м над землей.
Te - Эффективная температура - температура, которую ощущает одетый по сезону человек в тени. Характеристика душности погоды. При расчете учитывается влияние влажности воздуха и скорости ветра на теплоощущения человека.
Tes - Эффективная температура на солнце - температура, которую ощущает человек, с поправкой на солнечный нагрев. Характеристика знойности погоды. Зависит от высоты солнца над горизонтом, облачности и скорости ветра. Ночью, в пасмурную погоду, а также при ветре 12 м/с и более поправка равна нулю.
P - Атмосферное давление - приведенное к уровню моря атмосферное давление.
Po - Атмосферное давление - измеренное на уровне метеостанции атмосферное давление.
Tmin - Минимальная температура - минимум температуры воздуха на высоте 2 м над землей.
Tmax - Максимальная температура - максимум температуры воздуха на высоте 2 м над землей.
R - Количество осадков - Количество выпавших осадков за период времени, мм. При наведении курсора мыши на число - период времени, за который выпало указанное количество осадков.
R24 - Количество осадков - Количество выпавших осадков за 24 часа, мм.
S - Снежный покров - Высота снежного покрова, см. При наведении курсора мыши на число - состояние снежного покрова и степень покрытия местности в баллах.